www.pogodaiklimat.ru

Погода и климат >> Архив погоды >> Мексика >> Toluca


ПОГОДА в Toluca

  • Прогноз погоды в Toluca
  • Монитор погоды в Toluca
  • Климат города

АРХИВ ПОГОДЫ в Toluca

Время (UTC), дата Ветер
(напр.,м/с)
 
Видим.   Явления Облачность Т
(С)
Тd
(С)
f
(%)
Тe
(С)
Тes
(С)
Комфортность P
(гПа)
Po
(гПа)
Тmin
(С)
Tmax
(С)
R
(мм)
R24
(мм)
S
(см)
21 18.04 Ю 6
{7}
25 км 6/6 800 м
[Cb calv]
+20.9 +3.8 32 +21 +24 комфорт 1009.3 736.4
00 19.04 СВ 4 15 км гроза без осадков 10/10 600 м
[Cb cap]
+16.3 +2.0 38 +16 +16 1006.4 736.5 +3.8 +21.9
03 19.04 Ю 3 10 км {гроза, дождь} 5/4 800 м
[Sc diur, vesp Ac trans]
+8.6 +2.7 66 +6 +6 1008.9 738.7 0.3
06 19.04 СВ 2 10 км {дождь} 6/3 600 м
[Sc diur, vesp Ac und]
+8.5 +3.0 68 +7 +7 1011.5 738.9 0.3
09 19.04 Ю 2 10 км 3/3 800 м
[Sc diur, vesp]
+5.7 +1.7 75 +3 +3 1013.5 737.6
12 19.04 СВ 2 10 км мгла {туман} 4/4 800 м
[Sc diur, vesp]
+3.2 +1.0 85 0 0 1017.4 737.5 +1.9 +21.9
15 19.04 СВ 3 18 км мгла {туман} 1/1 800 м
[Cu hum]
+12.6 +2.9 52 +11 +18 1019.0 738.4
18 19.04 СЗ 4 25 км мгла {туман} 3/3 800 м
[Cu med, cong]
+19.3 +1.3 30 +19 +29 1015.6 737.8 +1.0 +19.7
21 19.04 СЗ 6 35 км 5/5 800 м
[Cu med, cong]
+21.2 -2.6 20 +20 +23 1009.6 736.3
00 20.04 С 4 30 км 3/3 600 м
[Cu med, cong]
+17.5 -7.6 17 +17 +18 1009.9 735.9 +1.0 +23.8
03 20.04 СВ 2 10 км 3/1 800 м
[Sc diur, vesp Ac trans]
+12.0 -4.2 32 +12 +12 1006.2 737.9
06 20.04 Ю 2 10 км ясно +7.4 -0.1 59 +6 +6 1010.2 739.1 +1.0 +23.8
09 20.04 Ю 2 10 км ясно +4.8 +0.4 73 +2 +2 1012.5 737.8
12 20.04 Ю 1 10 км мгла {туман} ясно +2.7 +0.5 85 +1 +1 1017.0 737.9 +1.4 +23.8
15 20.04 Ю 2 30 км ясно +12.5 +3.9 56 +12 +20 1019.8 738.6
18 20.04 СЗ 3 30 км 1/1 800 м
[Cu hum]
+21.4 -1.9 21 +21 +37 комфорт 1015.6 737.8 +0.8 +21.9
21 20.04 ЮЗ 3 25 км мгла {туман} 4/4 800 м
[Cu hum]
+23.4 -3.1 17 +22 +29 комфорт 1008.7 736.3
00 21.04 СЗ 4 25 км мгла {туман} 5/5 600 м
[Cu med, cong]
+21.0 -3.6 19 +21 +21 комфорт 1001.9 735.0 +0.8 +24.6
03 21.04 ЮВ 2 10 км {туман} 4/3 800 м
[Sc diur, vesp Ac trans]
+14.7 +1.1 40 +15 +15 1002.4 736.9
06 21.04 СЗ 1 10 км 1/1 600 м
[Sc diur, vesp]
+10.6 +1.7 54 +11 +11 1006.0 738.0 +0.8 +24.6
09 21.04 СВ 1 30 км ясно +6.9 +1.3 67 +6 +6 1008.3 736.9
12 21.04 ЮЗ 2 10 км ясно +5.0 +2.5 84 +2 +2 1013.1 737.0 +0.8 +24.6
15 21.04 СВ 2 25 км ясно +14.3 +6.3 59 +14 +22 1016.1 737.8
18 21.04 СЗ 5 25 км мгла {туман} 3/3 800 м
[Cu hum]
+21.7 -0.1 23 +21 +29 комфорт 1012.3 736.8 +3.9 +22.6
21 21.04 СЗ 3 25 км мгла {туман} 6/6 800 м
[Cb calv]
+22.7 -0.6 21 +22 +27 комфорт 1005.4 734.7
00 22.04 СЗ 6 20 км 8/8 600 м
[Cb calv]
+19.5 +1.2 29 +19 +19 1000.7 734.3 +3.9 +24.5
03 22.04 З 3 10 км {дождь} 3/3 800 м
[Sc diur, vesp]
+13.8 +3.2 49 +13 +13 1001.3 735.8 0.0
06 22.04 Ю 1 10 км {дождь} 1/1 600 м
[Sc diur, vesp]
+9.6 +3.0 63 +9 +9 1005.1 736.8 0.0
09 22.04 ЮЗ 1 10 км ясно +7.5 +3.1 74 +7 +7 1007.6 735.8
12 22.04 Ю 1 10 км мгла {туман} ясно +5.5 +2.3 80 +4 +4 1012.1 736.1 +4.2 +24.5
15 22.04 В 1 18 км ясно +15.9 +3.8 44 +17 +26 1014.9 737.3
18 22.04 СЗ 3 25 км {туман} 1/1 800 м
[Cu med, cong]
+23.8 -1.6 18 +22 +38 комфорт 1011.2 737.0 +3.8 +24.3
21 22.04 СЗ 3 25 км мгла {туман} 5/5 800 м
[Cu hum]
+24.0 -3.5 16 +22 +29 комфорт 1004.4 735.2
00 23.04 Ю 3 10 км гроза без осадков {дождь} 10/10 600 м
[Cb calv]
+18.1 -0.8 28 +18 +18 1000.4 735.1 1
03 23.04 Ю 2 10 км {дождь} ясно +14.6 +2.7 45 +14 +14 1001.5 736.8 1
06 23.04 ЮВ 1 10 км {дождь} ясно +10.2 +3.3 62 +10 +10 1005.7 737.8 +3.8 +26.4 1
09 23.04 СВ 1 10 км ясно +7.1 +2.8 74 +6 +6 1009.2 737.1
12 23.04 Ю 1 10 км мгла {туман} ясно +4.7 +0.7 75 +4 +4 1013.8 737.4 +3.4 +26.4
15 23.04 Ю 1 25 км ясно +14.5 +0.3 38 +15 +25 1017.1 738.5
18 23.04 СВ 1 23 км {туман} 4/3 800 м
[Cu med, cong Ci sp]
+22.5 +2.6 27 +22 +39 комфорт 1014.0 738.1 +3.0 +22.9
21 23.04 Ю 4 25 км слабый переохл. дождь (гололёд) {туман} 9/8 800 м
[Cb cap Ac cuf]
+19.5 +1.1 29 +20 +21 1007.7 736.3 0.0
00 24.04 СВ 1 10 км слабый переохл. дождь (гололёд) {гроза} 9/8 600 м
[Cb cap Ac trans]
+13.1 +7.7 70 +13 +14 1006.3 737.3 2
03 24.04 Ю 2 10 км {туман} 6/4 800 м
[Sc diur, vesp Ac und]
+11.4 +5.9 69 +10 +10 1006.8 738.3
06 24.04 В 1 10 км 4/3 600 м
[Sc diur, vesp Ac trans]
+9.1 +6.0 81 +9 +9 1010.2 738.6 +3.0 +25.2
09 24.04 ЮВ 1 10 км ясно +7.6 +4.2 79 +7 +7 1012.2 737.3
12 24.04 Ю 1 10 км мгла {туман} 4/3 800 м
[Sc diur, vesp Ac und]
+4.9 +2.8 86 +4 +4 1015.6 737.7 +3.6 +25.2
15 24.04 СВ 1 20 км {туман} 5/0
[Ci]
+14.2 +6.3 59 +15 +23 1017.5 738.7
18 24.04 СЗ 2 20 км {туман} 5/5 800 м
[Cu med, cong]
+21.1 +5.3 36 +22 +32 комфорт 1013.7 738.0 +3.3 +22.0
21 24.04 Ю 6
{7}
15 км 9/9 800 м
[Cb calv]
+22.9 +3.3 28 +23 +23 комфорт 1007.4 736.4
00 25.04 Ю 6 20 км мгла 4/3 600 м
[Cb calv Ac trans]
+19.0 +2.9 34 +19 +19 1002.9 735.9 +3.3 +25.5
03 25.04 ЮЗ 2 10 км 1/1 800 м
[Sc diur, vesp]
+13.8 +5.3 56 +13 +13 1003.2 737.1
06 25.04 З 1 10 км ясно +10.5 +3.7 63 +10 +10 1005.9 737.6 +3.3 +25.5
09 25.04 С 1 10 км 3/3 800 м
[Sc diur, vesp]
+8.9 +3.5 69 +8 +8 1008.2 736.6
12 25.04 Ю 1 10 км мгла {туман} 1/1 800 м
[Sc diur, vesp]
+6.9 +2.2 72 +6 +6 1011.6 736.6 +5.6 +22.5
15 25.04 ЮЗ 4 20 км 1/0
[Ci sp]
+17.0 +3.5 41 +17 +22 1013.6 737.5

 

Местоположение метеостанции Toluca (Мексика): широта 19.28 долгота -99.68 высота над уровнем моря 2720 м.

В архиве по умолчанию представлена погода в Toluca за последнюю неделю. Архивные данные за месяц целиком и за предыдущие месяцы, начиная с января 2011 года, Вы можете получить, выбрав интересующий диапазон дат из раскрывающегося списка и нажав кнопку "Ввод!".

Внимание! Время в таблицах - всемирное. Для получения местного времени необходимо прибавить поправку, которая в Toluca равна -6 ч.

Смотрите также архив погоды в соседних городах и на ближайших метеорологических станциях:

Погода в Geografia Unam (Мексика) (53 км)
Погода в Mexico City (Мексика) (54 км)
Погода в Cuernavaca (Мексика) (65 км)
Погода в Zacatepec (Мексика) (84 км)
Погода в Pachuca (Мексика) (136 км)
Погода в Tlaxcala (Мексика) (150 км)
Погода в Tlaxcala Airport (Мексика) (151 км)
Погода в Morelia (Мексика) (156 км)
Погода в Puebla (Мексика) (162 км)
Погода в Queretaro (Мексика) (163 км)

Пояснения к столбцам:

Ветер - указаны скорость ветра в м/с - средняя за 10 мин, порывы в срок и между сроками (в фигурных скобках) и направление, откуда дует ветер: С - северный, СВ - северо-восточный, В - восточный, ЮВ - юго-восточный, Ю - южный, ЮЗ - юго-западный, З - западный, СЗ - северо-западный.
Видимость - горизонтальная дальность видимости в метрах или километрах. При видимости от 1 до 10 км при отсутствии осадков обычно наблюдается дымка, при ухудшении видимости до 1 км и менее - туман. В сухую погоду видимость может ухудшаться дымом, пылью или мглою.
Явления - указаны атмосферные явления, наблюдавшиеся в срок или в последний час перед сроком; фигурными скобками обозначены явления, наблюдавшиеся между сроками (за 1-3 часа до срока); квадратными скобками обозначены град или гололедные отложения с указанием их диаметра в мм.
Облачность - указаны через наклонную черту общая и нижняя облачность в баллах и высота нижней границы облаков в метрах; квадратными скобками обозначены формы облаков: Ci - перистые, Cs - перисто-слоистые, Cc - перисто-кучевые, Ac - высококучевые, As - высокослоистые, Sc - слоисто-кучевые, Ns - слоисто-дождевые, Cu - кучевые, Cb - кучево-дождевые. Подробнее классификацию облаков см. в Атласе облаков (PDF).
T - Температура воздуха - температура, измеренная на высоте 2 м над землей.
Td - Температура точки росы - температура, при понижении до которой содержащийся в воздухе водяной пар достигнет насыщения.
f - Относительная влажность воздуха - влажноcть воздуха, измеренная на высоте 2 м над землей.
Te - Эффективная температура - температура, которую ощущает одетый по сезону человек в тени. Характеристика душности погоды. При расчете учитывается влияние влажности воздуха и скорости ветра на теплоощущения человека.
Tes - Эффективная температура на солнце - температура, которую ощущает человек, с поправкой на солнечный нагрев. Характеристика знойности погоды. Зависит от высоты солнца над горизонтом, облачности и скорости ветра. Ночью, в пасмурную погоду, а также при ветре 12 м/с и более поправка равна нулю.
P - Атмосферное давление - приведенное к уровню моря атмосферное давление.
Po - Атмосферное давление - измеренное на уровне метеостанции атмосферное давление.
Tmin - Минимальная температура - минимум температуры воздуха на высоте 2 м над землей.
Tmax - Максимальная температура - максимум температуры воздуха на высоте 2 м над землей.
R - Количество осадков - Количество выпавших осадков за период времени, мм. При наведении курсора мыши на число - период времени, за который выпало указанное количество осадков.
R24 - Количество осадков - Количество выпавших осадков за 24 часа, мм.
S - Снежный покров - Высота снежного покрова, см. При наведении курсора мыши на число - состояние снежного покрова и степень покрытия местности в баллах.